This is the latest recevied weather packets stored in our database for station/object WB4ZUT. If no packets are shown the sender has not sent any weather packets the latest 10 day(s).
| Time | Temp. | Humidity | Pressure | Rain* | Wind** | Luminosity | Snow |
|---|---|---|---|---|---|---|---|
| 1778204254 | 11.67° C | 62% | 1015.1 hPa | 0 mm | - | 0 W/m² | - |
| 1778203951 | 12.22° C | 61% | 1015 hPa | 0 mm | - | 0 W/m² | - |
| 1778203648 | 12.22° C | 60% | 1015 hPa | 0 mm | - | 0 W/m² | - |
| 1778203345 | 12.78° C | 59% | 1015 hPa | 0 mm | - | 0 W/m² | - |
| 1778203043 | 12.78° C | 59% | 1015 hPa | 0 mm | - | 0 W/m² | - |
| 1778202740 | 12.78° C | 57% | 1014.9 hPa | 0 mm | - | 0 W/m² | - |
| 1778202437 | 13.33° C | 57% | 1014.7 hPa | 0 mm | - | 0 W/m² | - |
| 1778202135 | 13.33° C | 57% | 1014.6 hPa | 0 mm | - | 0 W/m² | - |
| 1778201832 | 13.89° C | 54% | 1014.9 hPa | 0 mm | - | 0 W/m² | - |
| 1778201529 | 14.44° C | 53% | 1014.9 hPa | 0 mm | - | 0 W/m² | - |
| 1778201224 | 14.44° C | 50% | 1014.8 hPa | 0 mm | - | 1 W/m² | - |
| 1778200921 | 15° C | 49% | 1014.7 hPa | 0 mm | - | 3 W/m² | - |
| 1778200617 | 15.56° C | 48% | 1014.9 hPa | 0 mm | - | 7 W/m² | - |
| 1778200315 | 15.56° C | 48% | 1014.9 hPa | 0 mm | - | 10 W/m² | - |
| 1778200011 | 16.11° C | 47% | 1014.9 hPa | 0 mm | - | 12 W/m² | - |
| 1778199709 | 16.11° C | 46% | 1014.7 hPa | 0 mm | - | 16 W/m² | - |
| 1778199404 | 16.67° C | 45% | 1014.6 hPa | 0 mm | - | 19 W/m² | - |
| 1778199100 | 17.22° C | 43% | 1014.7 hPa | 0 mm | - | 23 W/m² | - |
| 1778198796 | 17.78° C | 41% | 1014.6 hPa | 0 mm | - | 33 W/m² | - |
| 1778198494 | 17.78° C | 41% | 1014.8 hPa | 0 mm | - | 44 W/m² | - |
| 1778198190 | 17.78° C | 40% | 1014.7 hPa | 0 mm | - | 53 W/m² | - |
| 1778197888 | 17.78° C | 40% | 1014.8 hPa | 0 mm | - | 58 W/m² | - |
| 1778197584 | 17.78° C | 39% | 1014.7 hPa | 0 mm | - | 70 W/m² | - |
| 1778197281 | 18.33° C | 38% | 1014.7 hPa | 0 mm | - | 79 W/m² | - |
| 1778196978 | 17.78° C | 39% | 1014.9 hPa | 0 mm | - | 91 W/m² | - |
* Rain latest hour (hover to see other rain measurements)
** Current wind speed in m/s (hover to see current wind gust speed)